Simultaneous Nadir Overpasses (SNOs) Predictions

Prediction of SNOs between AQUA and NPP Satellite Orbit:

Table of predicted SNOs for the next 14.0 days since TLE Epoch: 1/28/2024
Index Date (AQUA) Time (AQUA) Lat,Lon (AQUA) SZA (AQUA ) Date (NPP) Time (NPP) Lat,Lon (NPP) SZA (NPP ) Distance(km) Time Diff (sec)
1 01/28/2024 19:08:23 81.06, 170.64 107.24 01/28/2024 19:07:18 81.06, 170.54 107.30 1.80 65
2 01/28/2024 19:57:44 -81.10, -20.91 72.89 01/28/2024 19:58:00 -81.10, -20.92 72.89 0.52 16
3 01/31/2024 08:52:12 -81.08, 145.13 73.50 01/31/2024 08:51:57 -81.08, 144.99 73.47 2.38 15
4 01/31/2024 09:41:33 81.12, -46.51 106.40 01/31/2024 09:42:38 81.12, -46.36 106.33 2.60 65
5 02/02/2024 21:46:37 -81.10, -48.19 74.24 02/02/2024 21:45:51 -81.09, -48.04 74.23 2.65 46
6 02/02/2024 22:35:59 81.11, 119.77 105.71 02/02/2024 22:36:34 81.11, 119.85 105.68 1.28 35
7 02/05/2024 10:41:28 -80.39, 109.17 73.57 02/05/2024 10:40:14 -80.60, 108.52 73.41 25.93 74
8 02/05/2024 11:30:24 81.10, -74.05 105.01 02/05/2024 11:30:30 81.10, -74.02 105.00 0.58 6
9 02/08/2024 00:24:46 81.10, 92.41 104.24 02/08/2024 00:24:24 81.10, 92.43 104.25 0.47 22
10 02/08/2024 01:14:08 -81.13, -99.44 75.85 02/08/2024 01:15:07 -81.13, -99.35 75.90 1.61 59
11 02/10/2024 13:19:08 81.09,-101.23 103.45 02/10/2024 13:18:19 81.09,-101.18 103.47 0.93 49



Historial Predications of SNOs between AQUA and NPP
